H1 CPF 2 NER 2025 8 1 9 213 01 glonass146 H2 2216101 9146 54377 2025 8 1 0 0 0 2025 8 4 23 45 0 900 1 1 0 0 0 1 H9 10 0 60888 0.00000 0 2814540.450 23814677.135 -8621770.472 10 0 60888 900.00000 0 2548776.733 22589652.393 -11514158.463 10 0 60888 1800.00000 0 2063894.650 21070448.672 -14182207.798 10 0 60888 2700.00000 0 1332132.343 19310810.620 -16573946.488 10 0 60888 3600.00000 0 336980.061 17371069.348 -18642809.599 10 0 60888 4500.00000 0 -925869.459 15315674.472 -20348551.494 10 0 60888 5400.00000 0 -2448092.110 13210572.649 -21658031.161 10 0 60888 6300.00000 0 -4208843.926 11120543.447 -22545855.303 10 0 60888 7200.00000 0 -6175408.796 9106604.738 -22994867.023 10 0 60888 8100.00000 0 -8304355.413 7223596.354 -22996471.200 10 0 60888 9000.00000 0 -10543155.038 5518042.717 -22550791.080 10 0 60888 9900.00000 0 -12832192.292 4026382.943 -21666653.926 10 0 60888 10800.00000 0 -15107084.848 2773641.027 -20361406.950 10 0 60888 11700.00000 0 -17301215.116 1772589.928 -18660567.952 10 0 60888 12600.00000 0 -19348368.303 1023442.440 -16597318.231 10 0 60888 13500.00000 0 -21185367.005 514079.551 -14211848.244 10 0 60888 14400.00000 0 -22754592.830 220804.416 -11550569.191 10 0 60888 15300.00000 0 -24006290.367 109588.202 -8665206.262 10 0 60888 16200.00000 0 -24900558.114 137753.491 -5611791.374 10 0 60888 17100.00000 0 -25408944.123 256022.897 -2449575.114 10 0 60888 18000.00000 0 -25515580.685 410845.407 760120.893 10 0 60888 18900.00000 0 -25217811.701 546901.644 3955089.040 10 0 60888 19800.00000 0 -24526287.442 609682.013 7073435.397 10 0 60888 20700.00000 0 -23464523.631 548028.904 10054771.071 10 0 60888 21600.00000 0 -22067943.834 316535.916 12841372.711 10 0 60888 22500.00000 0 -20382445.512 -122296.811 15379290.391 10 0 60888 23400.00000 0 -18462549.544 -796241.739 17619382.252 10 0 60888 24300.00000 0 -16369210.038 -1721934.171 19518256.817 10 0 60888 25200.00000 0 -14167374.956 -2903933.150 21039105.752 10 0 60888 26100.00000 0 -11923398.183 -4334293.176 22152411.824 10 0 60888 27000.00000 0 -9702409.523 -5992665.870 22836519.101 10 0 60888 27900.00000 0 -7565750.743 -7846928.995 23078054.823 10 0 60888 28800.00000 0 -5568583.121 -9854318.519 22872194.868 10 0 60888 29700.00000 0 -3757764.902 -11963018.696 22222767.373 10 0 60888 30600.00000 0 -2170086.204 -14114146.111 21142191.797 10 0 60888 31500.00000 0 -830934.374 -16244047.089 19651253.523 10 0 60888 32400.00000 0 246554.739 -18286814.467 17778717.019 10 0 60888 33300.00000 0 1061824.120 -20176920.077 15560783.531 10 0 60888 34200.00000 0 1626687.548 -21851853.772 13040402.344 10 0 60888 35100.00000 0 1964594.663 -23254658.832 10266447.608 10 0 60888 36000.00000 0 2109399.746 -24336257.193 7292775.659 10 0 60888 36900.00000 0 2103686.074 -25057466.110 4177180.533 10 0 60888 37800.00000 0 1996716.779 -25390620.318 980267.823 10 0 60888 38700.00000 0 1842099.471 -25320730.116 -2235730.904 10 0 60888 39600.00000 0 1695264.453 -24846125.206 -5408179.195 10 0 60888 40500.00000 0 1610864.737 -23978555.997 -8475267.432 10 0 60888 41400.00000 0 1640209.658 -22742747.205 -11377229.785 10 0 60888 42300.00000 0 1828842.665 -21175422.111 -14057521.250 10 0 60888 43200.00000 0 2214367.704 -19323838.504 -16463930.468 10 0 60888 44100.00000 0 2824617.929 -17243898.258 -18549605.550 10 0 60888 45000.00000 0 3676245.650 -14997910.634 -20273972.073 10 0 60888 45900.00000 0 4773794.254 -12652103.948 -21603524.972 10 0 60888 46800.00000 0 6109292.075 -10273990.675 -22512478.892 10 0 60888 47700.00000 0 7662385.852 -7929696.872 -22983264.644 10 0 60888 48600.00000 0 9401008.336 -5681367.838 -23006862.734 10 0 60888 49500.00000 0 11282552.095 -3584758.198 -22582968.293 10 0 60888 50400.00000 0 13255500.082 -1687106.371 -21719985.101 10 0 60888 51300.00000 0 15261444.529 -25380.965 -20434849.745 10 0 60888 52200.00000 0 17237409.463 1375029.340 -18752690.206 10 0 60888 53100.00000 0 19118379.607 2501129.690 -16706326.254 10 0 60888 54000.00000 0 20839929.935 3352604.978 -14335622.015 10 0 60888 54900.00000 0 22340846.143 3941568.211 -11686703.769 10 0 60888 55800.00000 0 23565626.810 4291784.216 -8811058.589 10 0 60888 56700.00000 0 24466763.116 4437403.454 -5764531.571 10 0 60888 57600.00000 0 25006701.461 4421261.051 -2606241.298 10 0 60888 58500.00000 0 25159407.593 4292814.144 602565.350 10 0 60888 59400.00000 0 24911467.636 4105805.510 3799696.868 10 0 60888 60300.00000 0 24262680.691 3915752.634 6923216.547 10 0 60888 61200.00000 0 23226118.920 3777368.350 9912634.731 10 0 60888 62100.00000 0 21827652.998 3742021.785 12710071.309 10 0 60888 63000.00000 0 20104963.008 3855346.386 15261366.665 10 0 60888 63900.00000 0 18106075.890 4155095.506 17517120.382 10 0 60888 64800.00000 0 15887489.998 4669335.564 19433638.529 10 0 60888 65700.00000 0 13511964.050 5415052.774 20973772.207 10 0 60888 66600.00000 0 11046061.422 6397232.271 22107631.979 10 0 60888 67500.00000 0 8557550.579 7608449.062 22813165.134 10 0 60888 68400.00000 0 6112768.224 9028989.128 23076585.056 10 0 60888 69300.00000 0 3774053.320 10627497.262 22892644.522 10 0 60888 70200.00000 0 1597357.283 12362126.488 22264747.354 10 0 60888 71100.00000 0 -369871.445 14182143.194 21204895.570 10 0 60888 72000.00000 0 -2090441.166 16029923.003 19733472.010 10 0 60888 72900.00000 0 -3538736.509 17843255.920 17878861.302 10 0 60888 73800.00000 0 -4701548.932 19557865.973 15676914.997 10 0 60888 74700.00000 0 -5578383.336 21110040.936 13170269.757 10 0 60888 75600.00000 0 -6181227.755 22439262.455 10407530.455 10 0 60888 76500.00000 0 -6533795.583 23490726.117 7442332.951 10 0 60888 77400.00000 0 -6670272.089 24217644.901 4332304.127 10 0 60888 78300.00000 0 -6633618.222 24583237.978 1137939.223 10 0 60888 79200.00000 0 -6473503.790 24562319.688 -2078581.403 10 0 60888 80100.00000 0 -6243958.258 24142420.143 -5254612.233 10 0 60888 81000.00000 0 -6000839.795 23324388.730 -8328274.369 10 0 60888 81900.00000 0 -5799231.284 22122453.797 -11239673.841 10 0 60888 82800.00000 0 -5690875.307 20563735.056 -13932081.160 10 0 60888 83700.00000 0 -5721758.480 18687228.772 -16353047.852 10 0 60888 84600.00000 0 -5929949.107 16542308.293 -18455437.051 10 0 60888 85500.00000 0 -6343781.076 14186803.218 -20198347.240 10 0 60889 0.00000 0 -6980461.840 11684738.526 -21547910.616 10 0 60889 900.00000 0 -7845164.471 9103827.607 -22477951.134 10 0 60889 1800.00000 0 -8930641.592 6512828.006 -22970488.013 10 0 60889 2700.00000 0 -10217378.752 3978866.231 -23016077.897 10 0 60889 3600.00000 0 -11674279.858 1564846.552 -22613987.957 10 0 60889 4500.00000 0 -13259855.911 -672949.892 -21772198.246 10 0 60889 5400.00000 0 -14923866.716 -2686976.287 -20507234.072 10 0 60889 6300.00000 0 -16609346.368 -4440155.065 -18843832.512 10 0 60889 7200.00000 0 -18254927.279 -5907165.943 -16814450.326 10 0 60889 8100.00000 0 -19797365.192 -7075235.504 -14458623.486 10 0 60889 9000.00000 0 -21174159.348 -7944397.661 -11822191.252 10 0 60889 9900.00000 0 -22326158.157 -8527216.498 -8956400.264 10 0 60889 10800.00000 0 -23200041.478 -8847985.469 -5916906.351 10 0 60889 11700.00000 0 -23750575.957 -8941438.671 -2762693.531 10 0 60889 12600.00000 0 -23942549.417 -8851030.157 445068.675 10 0 60889 13500.00000 0 -23752303.876 -8626855.093 3644207.534 10 0 60889 14400.00000 0 -23168803.529 -8323301.247 6772746.269 10 0 60889 15300.00000 0 -22194193.469 -7996530.283 9770097.174 10 0 60889 16200.00000 0 -20843826.101 -7701895.136 12578226.060 10 0 60889 17100.00000 0 -19145754.179 -7491402.094 15142766.223 10 0 60889 18000.00000 0 -17139711.447 -7411324.138 17414061.127 10 0 60889 18900.00000 0 -14875622.808 -7500065.563 19348116.604 10 0 60889 19800.00000 0 -12411705.169 -7786367.396 20907445.107 10 0 60889 20700.00000 0 -9812236.807 -8287928.933 22061786.577 10 0 60889 21600.00000 0 -7145086.511 -9010503.567 22788692.727 10 0 60889 22500.00000 0 -4479103.510 -9947507.533 23073963.912 10 0 60889 23400.00000 0 -1881474.976 -11080159.123 22911930.276 10 0 60889 24300.00000 0 584840.774 -12378144.120 22305571.448 10 0 60889 25200.00000 0 2863500.088 -13800781.393 21266471.817 10 0 60889 26100.00000 0 4906880.686 -15298641.863 19814611.189 10 0 60889 27000.00000 0 6677822.302 -16815554.947 17977993.559 10 0 60889 27900.00000 0 8150929.066 -18290920.112 15792119.687 10 0 60889 28800.00000 0 9313379.326 -19662227.863 13299312.197 10 0 60889 29700.00000 0 10165208.840 -20867685.100 10547904.928 10 0 60889 30600.00000 0 10719055.279 -21848834.661 7591311.178 10 0 60889 31500.00000 0 10999374.545 -22553058.356 4486988.292 10 0 60889 32400.00000 0 11041161.924 -22935857.084 1295318.508 10 0 60889 33300.00000 0 10888232.294 -22962810.504 -1921571.866 10 0 60889 34200.00000 0 10591132.659 -22611131.926 -5101031.206 10 0 60889 35100.00000 0 10204776.297 -21870751.103 -8181114.392 10 0 60889 36000.00000 0 9785899.986 -20744877.638 -11101802.358 10 0 60889 36900.00000 0 9390453.495 -19250019.912 -13806184.153 10 0 60889 37800.00000 0 9071033.541 -17415457.784 -16241577.097 10 0 60889 38700.00000 0 8874472.425 -15282190.701 -18360562.090 10 0 60889 39600.00000 0 8839684.791 -12901405.298 -20121913.015 10 0 60889 40500.00000 0 8995864.644 -10332526.944 -21491401.697 10 0 60889 41400.00000 0 9361109.561 -7640937.239 -22442462.693 10 0 60889 42300.00000 0 9941530.495 -4895453.347 -22956705.230 10 0 60889 43200.00000 0 10730884.758 -2165674.775 -23024262.956 10 0 60889 44100.00000 0 11710747.316 480691.669 -22643975.481 10 0 60889 45000.00000 0 12851212.738 2980417.459 -21823399.081 10 0 60889 45900.00000 0 14112097.670 5277141.485 -20578647.315 10 0 60889 46800.00000 0 15444592.686 7323464.337 -18934065.476 10 0 60889 47700.00000 0 16793293.565 9082661.989 -16921746.054 10 0 60889 48600.00000 0 18098526.243 10529949.377 -14580895.217 10 0 60889 49500.00000 0 19298867.561 11653243.305 -11957063.168 10 0 60889 50400.00000 0 20333755.833 12453395.095 -9101253.730 10 0 60889 51300.00000 0 21146081.737 12943885.642 -6068930.726 10 0 60889 52200.00000 0 21684650.966 13149997.862 -2918940.615 10 0 60889 53100.00000 0 21906415.627 13107503.242 287627.634 10 0 60889 54000.00000 0 21778381.163 12860919.352 3488623.334 10 0 60889 54900.00000 0 21279109.228 12461412.788 6622032.898 10 0 60889 55800.00000 0 20399753.870 11964436.590 9627173.704 10 0 60889 56700.00000 0 19144587.797 11427201.913 12445860.439 10 0 60889 57600.00000 0 17530996.703 10906090.344 15023522.005 10 0 60889 58500.00000 0 15588941.532 10454115.414 17310248.177 10 0 60889 59400.00000 0 13359910.513 10118539.605 19261746.682 10 0 60889 60300.00000 0 10895403.601 9938746.468 20840193.163 10 0 60889 61200.00000 0 8255011.116 9944456.843 22014958.466 10 0 60889 62100.00000 0 5504164.894 10154363.914 22763199.924 10 0 60889 63000.00000 0 2711653.555 10575244.526 23070305.708 10 0 60889 63900.00000 0 -52996.732 11201584.683 22930183.767 10 0 60889 64800.00000 0 -2722169.056 12015735.926 22345389.552 10 0 60889 65700.00000 0 -5232721.852 12988597.466 21327089.364 10 0 60889 66600.00000 0 -7528368.933 14080797.100 19894859.046 10 0 60889 67500.00000 0 -9561775.420 15244323.126 18076320.574 10 0 60889 68400.00000 0 -11296282.855 16424540.437 15906622.108 10 0 60889 69300.00000 0 -12707191.668 17562507.432 13427770.072 10 0 60889 70200.00000 0 -13782547.301 18597497.298 10687824.837 10 0 60889 71100.00000 0 -14523396.802 19469617.910 7739974.513 10 0 60889 72000.00000 0 -14943504.786 20122419.705 4641504.140 10 0 60889 72900.00000 0 -15068540.521 20505380.788 1452680.128 10 0 60889 73800.00000 0 -14934770.454 20576163.040 -1764428.142 10 0 60889 74700.00000 0 -14587311.709 20302542.323 -4947165.814 10 0 60889 75600.00000 0 -14078021.104 19663929.423 -8033524.364 10 0 60889 76500.00000 0 -13463110.053 18652415.688 -10963362.374 10 0 60889 77400.00000 0 -12800587.625 17273297.571 -13679590.005 10 0 60889 78300.00000 0 -12147641.463 15545056.639 -16129292.756 10 0 60889 79200.00000 0 -11558068.908 13498794.898 -18264771.414 10 0 60889 80100.00000 0 -11079868.303 11177148.661 -20044477.104 10 0 60889 81000.00000 0 -10753093.399 8632726.324 -21433822.720 10 0 60889 81900.00000 0 -10608062.174 5926135.618 -22405854.885 10 0 60889 82800.00000 0 -10663995.986 3123683.091 -22941773.605 10 0 60889 83700.00000 0 -10928146.317 294842.191 -23031290.091 10 0 60889 84600.00000 0 -11395445.476 -2490404.352 -22672816.597 10 0 60889 85500.00000 0 -12048695.213 -5164237.155 -21873485.450 10 0 60890 0.00000 0 -12859284.379 -7663576.792 -20648998.007 10 0 60890 900.00000 0 -13788404.921 -9932459.254 -19023306.603 10 0 60890 1800.00000 0 -14788713.054 -11924109.258 -17028138.207 10 0 60890 2700.00000 0 -15806366.424 -13602631.093 -14702367.525 10 0 60890 3600.00000 0 -16783349.911 -14944245.061 -12091253.784 10 0 60890 4500.00000 0 -17659992.287 -15938021.338 -9245555.857 10 0 60890 5400.00000 0 -18377567.594 -16586082.628 -6220543.297 10 0 60890 6300.00000 0 -18880871.890 -16903269.298 -3074922.628 10 0 60890 7200.00000 0 -19120667.141 -16916283.073 130300.180 10 0 60890 8100.00000 0 -19055889.805 -16662346.999 3332999.005 10 0 60890 9000.00000 0 -18655531.613 -16187439.359 6471126.023 10 0 60890 9900.00000 0 -17900113.838 -15544176.747 9483906.318 10 0 60890 10800.00000 0 -16782693.361 -14789435.850 12313006.081 10 0 60890 11700.00000 0 -15309358.283 -13981814.025 14903652.417 10 0 60890 12600.00000 0 -13499192.011 -13179035.180 17205683.901 10 0 60890 13500.00000 0 -11383706.618 -12435409.443 19174512.470 10 0 60890 14400.00000 0 -9005768.066 -11799452.628 20771979.036 10 0 60890 15300.00000 0 -6418056.681 -11311764.750 21967087.130 10 0 60890 16200.00000 0 -3681125.243 -11003256.053 22736601.161 10 0 60890 17100.00000 0 -861133.469 -10893794.648 23065498.221 10 0 60890 18000.00000 0 1972649.008 -10991332.556 22947264.839 10 0 60890 18900.00000 0 4750469.471 -11291547.237 22384032.719 10 0 60890 19800.00000 0 7404741.557 -11778014.538 21386550.202 10 0 60890 20700.00000 0 9872608.727 -12422906.998 19973988.979 10 0 60890 21600.00000 0 12098316.365 -13188189.570 18173588.509 10 0 60890 22500.00000 0 14035294.479 -14027264.037 16020143.515 10 0 60890 23400.00000 0 15647864.452 -14886994.223 13555343.024 10 0 60890 24300.00000 0 16912498.465 -15710027.768 10826972.345 10 0 60890 25200.00000 0 17818578.618 -16437317.169 7887992.388 10 0 60890 26100.00000 0 18368623.390 -17010733.709 4795513.491 10 0 60890 27000.00000 0 18577971.594 -17375663.312 1609683.467 10 0 60890 27900.00000 0 18473936.874 -17483473.534 -1607488.264 10 0 60890 28800.00000 0 18094468.477 -17293745.829 -4793346.837 10 0 60890 29700.00000 0 17486375.266 -16776176.889 -7885823.628 10 0 60890 30600.00000 0 16703188.817 -15912066.757 -10824658.149 10 0 60890 31500.00000 0 15802757.036 -14695328.958 -13552584.875 10 0 60890 32400.00000 0 14844671.396 -13132978.397 -16016460.509 10 0 60890 33300.00000 0 13887637.910 -11245075.102 -18168308.546 10 0 60890 34200.00000 0 12986904.301 -9064125.282 -19966259.890 10 0 60890 35100.00000 0 12191853.080 -6633964.285 -21375370.712 10 0 60890 36000.00000 0 11543862.829 -4008168.077 -22368301.527 10 0 60890 36900.00000 0 11074528.219 -1248059.769 -22925844.513 10 0 60890 37800.00000 0 10804313.585 1579605.369 -23037289.394 10 0 60890 38700.00000 0 10741696.219 4405179.721 -22700621.549 10 0 60890 39600.00000 0 10882834.505 7158782.066 -21922549.381 10 0 60890 40500.00000 0 11211773.707 9772964.805 -20718361.387 10 0 60890 41400.00000 0 11701179.462 12185279.212 -19111616.558 10 0 60890 42300.00000 0 12313566.829 14340632.790 -17133674.944 10 0 60890 43200.00000 0 13002971.960 16193341.840 -14823078.180 10 0 60890 44100.00000 0 13716995.062 17708795.299 -12224792.531 10 0 60890 45000.00000 0 14399127.810 18864662.238 -9389329.582 10 0 60890 45900.00000 0 14991266.735 19651594.593 -6371761.948 10 0 60890 46800.00000 0 15436306.443 20073397.819 -3230653.274 10 0 60890 47700.00000 0 15680703.414 20146664.244 -26923.397 10 0 60890 48600.00000 0 15676902.564 19899886.333 3177329.372 10 0 60890 49500.00000 0 15385524.641 19372088.523 6320026.215 10 0 60890 50400.00000 0 14777222.704 18611036.186 9340303.078 10 0 60890 51300.00000 0 13834129.784 17671097.599 12179680.636 10 0 60890 52200.00000 0 12550836.927 16610848.977 14783186.963 10 0 60890 53100.00000 0 10934860.304 15490522.943 17100411.933 10 0 60890 54000.00000 0 9006577.193 14369407.023 19086473.927 10 0 60890 54900.00000 0 6798632.445 13303300.567 20702881.066 10 0 60890 55800.00000 0 4354838.824 12342135.858 21918271.199 10 0 60890 56700.00000 0 1728615.288 11527862.272 22709017.115 10 0 60890 57600.00000 0 -1018973.853 10892681.445 23059685.771 10 0 60890 58500.00000 0 -3821499.489 10457706.983 22963342.807 10 0 60890 59400.00000 0 -6609675.409 10232104.786 22421696.277 10 0 60890 60300.00000 0 -9313991.037 10212750.341 21445076.169 10 0 60890 61200.00000 0 -11867361.524 10384418.053 20052249.138 10 0 60890 62100.00000 0 -14207686.391 10720495.617 18270070.743 10 0 60890 63000.00000 0 -16280211.170 11184194.560 16132980.438 10 0 60890 63900.00000 0 -18039593.959 11730207.138 13682347.621 10 0 60890 64800.00000 0 -19451590.656 12306740.751 10965680.009 10 0 60890 65700.00000 0 -20494287.996 12857844.703 8035708.569 10 0 60890 66600.00000 0 -21158832.145 13325931.187 4949366.068 10 0 60890 67500.00000 0 -21449621.624 13654383.599 1766678.816 10 0 60890 68400.00000 0 -21383955.964 13790140.912 -1450406.647 10 0 60890 69300.00000 0 -20991154.588 13686147.375 -4639238.326 10 0 60890 70200.00000 0 -20311183.178 13303562.097 -7737690.316 10 0 60890 71100.00000 0 -19392845.974 12613633.078 -10685385.785 10 0 60890 72000.00000 0 -18291621.159 11599154.455 -13424886.110 10 0 60890 72900.00000 0 -17067231.876 10255443.558 -15902821.592 10 0 60890 73800.00000 0 -15781056.709 8590794.956 -18070940.575 10 0 60890 74700.00000 0 -14493490.168 6626391.132 -19887055.572 10 0 60890 75600.00000 0 -13261365.634 4395672.665 -21315867.508 10 0 60890 76500.00000 0 -12135550.116 1943193.857 -22329651.893 10 0 60890 77400.00000 0 -11158812.531 -676988.473 -22908793.794 10 0 60890 78300.00000 0 -10364055.079 -3403325.638 -23042161.771 10 0 60890 79200.00000 0 -9772981.527 -6169103.173 -22727314.270 10 0 60890 80100.00000 0 -9395257.375 -8904985.277 -21970535.344 10 0 60890 81000.00000 0 -9228195.854 -11541671.706 -20786699.965 10 0 60890 81900.00000 0 -9256981.391 -14012556.804 -19198972.436 10 0 60890 82800.00000 0 -9455419.485 -16256280.535 -17238344.558 10 0 60890 83700.00000 0 -9787179.837 -18219066.201 -14943023.235 10 0 60890 84600.00000 0 -10207478.968 -19856748.685 -12357679.918 10 0 60890 85500.00000 0 -10665130.262 -21136410.062 -9532576.924 10 0 60891 0.00000 0 -11104874.094 -22037555.962 -6522588.156 10 0 60891 900.00000 0 -11469889.468 -22552785.727 -3386131.747 10 0 60891 1800.00000 0 -11704380.366 -22687928.987 -184039.534 10 0 60891 2700.00000 0 -11756128.510 -22461646.264 3021620.132 10 0 60891 3600.00000 0 -11578904.440 -21904510.470 6168739.637 10 0 60891 4500.00000 0 -11134635.763 -21057609.596 9196368.041 10 0 60891 5400.00000 0 -10395241.454 -19970729.810 12045882.806 10 0 60891 6300.00000 0 -9344055.110 -18700195.575 14662115.279 10 0 60891 7200.00000 0 -7976777.185 -17306457.267 16994408.930 10 0 60891 8100.00000 0 -6301915.770 -15851526.963 18997590.776 10 0 60891 9000.00000 0 -4340696.563 -14396369.055 20632838.192 10 0 60891 9900.00000 0 -2126444.456 -12998353.997 21868425.185 10 0 60891 10800.00000 0 296539.129 -11708880.702 22680334.518 10 0 60891 11700.00000 0 2874558.407 -10571266.052 23052724.322 10 0 60891 12600.00000 0 5546501.245 -9618989.036 22978240.377 10 0 60891 13500.00000 0 8246133.065 -8874362.450 22458167.813 10 0 60891 14400.00000 0 10904613.472 -8347687.554 21502418.701 10 0 60891 15300.00000 0 13453132.900 -8036927.335 20129354.797 10 0 60891 16200.00000 0 15825561.207 -7927912.540 18365447.585 10 0 60891 17100.00000 0 17960999.043 -7995072.592 16244780.739 10 0 60891 18000.00000 0 19806126.190 -8202661.494 13808403.150 10 0 60891 18900.00000 0 21317248.924 -8506427.878 11103543.652 10 0 60891 19800.00000 0 22461960.411 -8855659.352 8182701.542 10 0 60891 20700.00000 0 23220343.897 -9195515.034 5102629.851 10 0 60891 21600.00000 0 23585667.364 -9469547.395 1923230.784 10 0 60891 22500.00000 0 23564539.693 -9622305.999 -1293614.935 10 0 60891 23400.00000 0 23176521.081 -9601911.632 -4485261.386 10 0 60891 24300.00000 0 22453203.874 -9362490.224 -7589528.725 10 0 60891 25200.00000 0 21436802.623 -8866361.589 -10545927.146 10 0 60891 26100.00000 0 20178313.314 -8085888.367 -13296848.210 10 0 60891 27000.00000 0 18735320.256 -7004905.015 -15788698.948 10 0 60891 27900.00000 0 17169544.182 -5619664.728 -17972955.453 10 0 60891 28800.00000 0 15544236.042 -3939262.897 -19807114.502 10 0 60891 29700.00000 0 13921527.374 -1985518.146 -21255524.123 10 0 60891 30600.00000 0 12359849.569 207684.806 -22290076.843 10 0 60891 31500.00000 0 10911531.051 2595563.293 -22890752.274 10 0 60891 32400.00000 0 9620673.320 5124067.124 -23045999.071 10 0 60891 33300.00000 0 8521394.542 7731903.116 -22752949.581 10 0 60891 34200.00000 0 7636513.431 10352869.133 -22017463.892 10 0 60891 35100.00000 0 6976727.245 12918400.292 -20854003.399 10 0 60891 36000.00000 0 6540316.646 15360221.349 -19285337.208 10 0 60891 36900.00000 0 6313387.915 17612995.060 -17342087.922 10 0 60891 37800.00000 0 6270640.383 19616856.779 -15062126.326 10 0 60891 38700.00000 0 6376624.924 21319730.502 -12489827.248 10 0 60891 39600.00000 0 6587438.913 22679330.862 -9675201.525 10 0 60891 40500.00000 0 6852784.865 23664768.844 -6672921.204 10 0 60891 41400.00000 0 7118305.003 24257695.636 -3541257.081 10 0 60891 42300.00000 0 7328092.614 24452938.291 -340949.315 10 0 60891 43200.00000 0 7427273.935 24258602.142 2865967.022 10 0 60891 44100.00000 0 7364551.595 23695637.025 6017358.894 10 0 60891 45000.00000 0 7094602.463 22796886.600 9052191.804 10 0 60891 45900.00000 0 6580229.020 21605661.409 11911703.204 10 0 60891 46800.00000 0 5794173.832 20173895.829 14540530.734 10 0 60891 47700.00000 0 4720520.730 18559966.137 16887774.224 10 0 60891 48600.00000 0 3355623.571 16826260.590 18907971.831 10 0 60891 49500.00000 0 1708522.904 15036602.423 20561972.384 10 0 60891 50400.00000 0 -199167.985 13253632.524 21817687.940 10 0 60891 51300.00000 0 -2333904.426 11536259.946 22650712.760 10 0 60891 52200.00000 0 -4651354.237 9937285.555 23044797.301 10 0 60891 53100.00000 0 -7097998.617 8501297.002 22992168.189 10 0 60891 54000.00000 0 -9613125.684 7262922.002 22493687.866 10 0 60891 54900.00000 0 -12131136.004 6245512.351 21558850.207 10 0 60891 55800.00000 0 -14584066.241 5460313.475 20205611.242 10 0 60891 56700.00000 0 -16904227.648 4906154.333 18460057.019 10 0 60891 57600.00000 0 -19026850.781 4569671.048 16355913.557 10 0 60891 58500.00000 0 -20892626.907 4426055.410 13933906.903 10 0 60891 59400.00000 0 -22450040.135 4440297.315 11240984.301 10 0 60891 60300.00000 0 -23657392.484 4568869.278 8329410.406 10 0 60891 61200.00000 0 -24484436.254 4761782.127 5255755.360 10 0 60891 62100.00000 0 -24913544.275 4964924.832 2079794.061 10 0 60891 63000.00000 0 -24940367.771 5122588.894 -1136661.801 10 0 60891 63900.00000 0 -24573953.187 5180069.322 -4330975.527 10 0 60891 64800.00000 0 -23836312.344 5086230.546 -7440916.383 10 0 60891 65700.00000 0 -22761463.656 4795926.808 -10405884.507 10 0 60891 66600.00000 0 -21393984.908 4272172.545 -13168104.391 10 0 60891 67500.00000 0 -19787139.025 3487968.966 -15673762.315 10 0 60891 68400.00000 0 -18000652.574 2427707.743 -17874064.346 10 0 60891 69300.00000 0 -16098241.507 1088090.959 -19726193.371 10 0 60891 70200.00000 0 -14144989.236 -521472.724 -21194145.951 10 0 60891 71100.00000 0 -12204688.046 -2379013.310 -22249432.567 10 0 60891 72000.00000 0 -10337256.085 -4450680.546 -22871627.827 10 0 60891 72900.00000 0 -8596338.386 -6691932.576 -23048760.442 10 0 60891 73800.00000 0 -7027192.149 -9049182.481 -22777536.162 10 0 60891 74700.00000 0 -5664944.021 -11461833.745 -22063390.210 10 0 60891 75600.00000 0 -4533291.046 -13864619.594 -20920369.132 10 0 60891 76500.00000 0 -3643697.939 -16190148.527 -19370845.277 10 0 60891 77400.00000 0 -2995122.301 -18371549.973 -17445070.251 10 0 60891 78300.00000 0 -2574277.139 -20345110.006 -15180576.748 10 0 60891 79200.00000 0 -2356417.441 -22052787.762 -12621440.900 10 0 60891 80100.00000 0 -2306615.742 -23444508.207 -9817419.940 10 0 60891 81000.00000 0 -2381471.193 -24480136.574 -6822982.215 10 0 60891 81900.00000 0 -2531178.716 -25131053.059 -3696248.558 10 0 60891 82800.00000 0 -2701869.968 -25381263.170 -497865.677 10 0 60891 83700.00000 0 -2838126.687 -25227998.543 2710166.628 10 0 60891 84600.00000 0 -2885560.083 -24681784.244 5865691.863 10 0 60891 85500.00000 0 -2793347.404 -23765970.726 8907593.931 99